{"data":{"norad_id":69626,"epoch":"2026-09-20T04:06:39.013632Z","epoch_age_seconds":57334,"freshness":"FRESH","line1":"1 69626U 26140AL  26263.17128488 -.00000877  00000+0 -85957-4 0  9991","line2":"2 69626  51.8987 308.1525 0002287 135.2669 224.8478 14.79935213 15728","mean_motion":14.79935213,"eccentricity":0.0002287,"inclination_deg":51.8987,"raan_deg":308.1525,"arg_perigee_deg":135.2669,"mean_anomaly_deg":224.8478,"bstar":-8.5957e-5,"rev_number":1572,"period_min":97.301556672941,"perigee_km":627.92599015846,"apogee_km":631.1312964237,"semimajor_km":7007.6656432911,"source":"CELESTRAK","updated_at":"2026-09-20T09:00:25.031948Z"}}